Terminal Aerodrome Forecast
Issued by NWS

Home | Current Version | Previous Version | Text Only | Print | Product List | Glossary On
Versions: 1 2 3 4 5 6 7 8 9 10 11 12 13 14
000
FTUS44 KSJT 012300
TAFSOA
TAF
KSOA 012324Z 0200/0224 17008KT P6SM FEW150
     FM021000 18008KT P6SM BKN012
     FM021600 19010G16KT P6SM SCT020=

USA.gov is the U.S. government's official web portal to all federal, state and local government web resources and services.